[[{"header":{"parameterUnit":"m.s-1","parameterCategory":2,"la1":30.2991,"la2":30.254,"lo1":-89.0895,"lo2":-89.0444,"dy":0.0017,"dx":0.0017,"nx":28,"ny":28,"refTime":"2023-03-17T21:00:00:Z","depth":"0","parameterNumber":2,"parameterNumberName":"U-component_of_CURRENTS"},"data":[0,0,0,0,0,0,0,0,0,0,0,0,0,0,0,0,0,0,0,0,0,0,0,0,0,0,0,0,0,0,0,0,0,0,0,0,0,0,0,0,0,0,0,0,0,0,0,0,0,0,0,0,0,0,0,0,0,0,-0.1667,-0.1667,0,-0.1629,-0.1628,-0.1627,-0.1544,-0.1543,-0.1542,-0.154,-0.1412,-0.141,-0.1408,0,0,0,0,0,0,0,0,0,0,0,0,0,-0.1603,-0.1604,-0.1667,-0.1667,-0.1667,-0.1629,-0.1628,-0.1627,-0.1544,-0.1543,-0.1541,-0.154,-0.1413,-0.141,-0.1407,0,0,0,0,0,0,0,0,0,0,0,0,0,-0.16,-0.1605,-0.1667,-0.1625,-0.1621,-0.1629,-0.1628,-0.1627,-0.1545,-0.1543,-0.1541,-0.1539,-0.1414,-0.141,-0.1407,-0.1423,0,0,-0.1397,-0.1395,0,0,0,0,0,0,0,0,-0.16,-0.1601,-0.1631,-0.1628,-0.1623,-0.1594,-0.1559,-0.1556,-0.1545,-0.1568,-0.154,-0.1538,-0.1469,-0.1461,-0.1452,-0.1417,-0.1411,-0.1396,-0.1394,-0.1393,-0.1392,0,0,0,0,0,0,0,-0.16,-0.1602,-0.1647,-0.1631,-0.1627,-0.1586,-0.1583,-0.1557,-0.1524,-0.1566,-0.1561,-0.1566,-0.1465,-0.1456,-0.1448,-0.1409,-0.1396,-0.1393,-0.1391,-0.139,-0.1474,-0.1478,0,0,0,0,0,0,-0.1621,-0.1603,-0.1648,-0.1646,-0.1613,-0.1589,-0.1586,-0.1601,-0.1526,-0.1515,-0.1567,-0.1562,-0.1462,-0.1452,-0.1443,-0.1539,-0.1393,-0.139,-0.1388,-0.147,-0.1475,-0.1479,0,0,0,0,0,0,-0.162,-0.1626,-0.1649,-0.1626,-0.1627,-0.1593,-0.161,-0.1601,-0.1582,-0.1529,-0.1514,-0.1556,-0.1461,-0.1448,-0.1441,-0.153,-0.1388,-0.1385,-0.1464,-0.1471,-0.1477,-0.1678,0,0,0,0,0,0,-0.1619,-0.1626,-0.1632,-0.1629,-0.163,-0.1665,-0.1612,-0.1602,-0.1591,-0.1583,-0.1515,-0.1502,-0.1458,-0.1446,-0.1437,-0.1523,-0.1382,-0.1459,-0.1467,-0.1475,-0.1666,-0.169,-0.1711,0,0,0,0,0,-0.1617,-0.1627,-0.1633,-0.1638,-0.1644,-0.1667,-0.1664,-0.1628,-0.1592,-0.1599,-0.1563,-0.1503,-0.1492,-0.1446,-0.1435,-0.1521,-0.1455,-0.1465,-0.1474,-0.1655,-0.1685,-0.1711,0,0,0,0,0,0,-0.1581,-0.162,-0.1626,-0.1643,-0.1665,-0.1655,-0.1644,-0.1634,-0.161,-0.1587,-0.1533,-0.1519,-0.1559,-0.1509,-0.146,-0.1574,-0.1474,-0.1482,-0.1616,-0.1644,-0.1666,-0.165,-0.1379,0,0,0,0,0,-0.1589,-0.1612,-0.1646,-0.1657,-0.1669,-0.1661,-0.1659,-0.1648,-0.1634,-0.1619,-0.1588,-0.1569,-0.1596,-0.1588,-0.1584,-0.1621,-0.154,-0.168,-0.1703,-0.1722,-0.1706,-0.1681,-0.1699,-0.1511,-0.1511,-0.1511,0,0,-0.157,-0.1599,-0.1606,-0.1653,-0.1653,-0.1702,-0.1652,-0.1656,-0.171,-0.161,-0.1646,-0.1635,-0.1623,-0.1687,-0.1702,-0.1649,-0.1737,-0.1734,-0.1751,-0.1723,-0.1693,-0.171,-0.1726,-0.1517,-0.1516,-0.1515,0,0,-0.1561,-0.1582,-0.1606,-0.1645,-0.1677,-0.1702,-0.1712,-0.1725,-0.1738,-0.1783,-0.1756,-0.1787,-0.1793,-0.1824,-0.184,-0.1979,-0.186,-0.1996,-0.2091,-0.2071,-0.2084,-0.2095,-0.202,-0.2023,-0.2006,-0.2006,-0.2006,0,-0.1538,-0.1589,-0.1613,-0.1662,-0.1706,-0.1715,-0.1771,-0.1807,-0.1821,-0.1851,-0.1815,-0.1875,-0.1871,-0.1971,-0.2045,-0.2031,-0.1966,-0.1989,-0.2097,-0.2106,-0.2114,-0.2033,-0.2034,-0.2017,-0.2016,-0.2015,-0.2013,0,-0.1563,-0.1613,-0.1628,-0.1721,-0.1776,-0.1814,-0.1898,-0.1945,-0.1969,-0.2,-0.208,-0.2077,-0.2101,-0.2154,-0.2146,-0.224,-0.2158,-0.2128,-0.2019,-0.2144,-0.2052,-0.2049,-0.2032,-0.2028,-0.2025,-0.2023,0,0,-0.1491,-0.1623,-0.1626,-0.1686,-0.1814,-0.185,-0.1986,-0.2096,-0.2145,-0.2194,-0.2246,-0.2362,-0.2323,-0.2339,-0.2339,-0.235,-0.2385,-0.2276,-0.227,-0.2184,-0.2288,-0.2202,-0.2188,-0.2366,-0.2366,-0.2367,-0.2202,0,-0.1504,-0.159,-0.1687,-0.1798,-0.1854,-0.1967,-0.2091,-0.2194,-0.2257,-0.2304,-0.2351,-0.2384,-0.2409,-0.2404,-0.2439,-0.2383,-0.2384,-0.2429,-0.2192,-0.2183,-0.2079,-0.2186,-0.2057,-0.1897,-0.2197,-0.2196,-0.2196,0,-0.1501,-0.1568,-0.1661,-0.1841,-0.1878,-0.1961,-0.2129,-0.2239,-0.2355,-0.2391,-0.2443,-0.244,-0.25,-0.2467,-0.2445,-0.2463,-0.2399,-0.235,-0.2342,-0.2179,-0.2092,-0.1821,-0.1877,-0.1848,-0.2189,-0.2189,-0.219,0,-0.14,-0.1561,-0.1629,-0.1685,-0.1882,-0.1959,-0.2076,-0.2233,-0.2327,-0.24,-0.2424,-0.2476,-0.2446,-0.2429,-0.238,-0.2398,-0.2289,-0.2285,-0.2142,-0.2131,-0.1931,-0.1902,-0.191,-0.225,-0.2251,-0.2251,-0.2252,0,-0.1375,-0.1431,-0.1569,-0.1595,-0.1691,-0.1874,-0.1987,-0.21,-0.2252,-0.2319,-0.2421,-0.243,-0.2432,-0.2391,-0.2357,-0.223,-0.2267,-0.2156,-0.2098,-0.2,-0.1981,-0.1869,-0.1891,-0.2245,-0.2246,-0.2248,-0.2249,0,-0.1248,-0.1343,-0.1407,-0.1575,-0.1628,-0.1678,-0.1918,-0.1988,-0.2163,-0.2235,-0.2257,-0.2356,-0.2288,-0.2278,-0.2182,-0.2156,-0.2012,-0.2008,-0.1871,-0.1803,-0.1661,-0.1699,-0.1615,-0.1577,-0.182,-0.1817,-0.1815,0,-0.1198,-0.1203,-0.131,-0.1318,-0.1383,-0.151,-0.1596,-0.1862,-0.1956,-0.2176,-0.2174,-0.2177,-0.2107,-0.1967,-0.1904,-0.1787,-0.1841,-0.1638,-0.1685,-0.1642,-0.1641,-0.1695,-0.1676,-0.1484,-0.1479,-0.1475,-0.1472,0,-0.108,-0.1085,-0.1115,-0.1108,-0.1162,-0.1251,-0.1407,-0.1493,-0.1786,-0.1872,-0.193,-0.1896,-0.1818,-0.1632,-0.1532,-0.1485,-0.1595,-0.1551,-0.1547,-0.1421,-0.1436,-0.1373,-0.158,-0.1436,-0.144,-0.1442,-0.1444,-0.1446,-0.0952,-0.0913,-0.0903,-0.0898,-0.0923,-0.0935,-0.0936,-0.1113,-0.1212,-0.1262,-0.1487,-0.128,-0.1406,-0.1227,-0.1223,-0.1162,-0.1277,-0.114,-0.1192,-0.1255,-0.1231,-0.1349,-0.1133,-0.1135,-0.1137,-0.1138,-0.1139,0,-0.0811,-0.0761,-0.0714,-0.0662,-0.0583,-0.0675,-0.0754,-0.0693,-0.067,-0.0724,-0.0714,-0.0596,-0.0607,-0.0723,-0.0829,-0.0819,-0.0854,-0.0839,-0.0893,-0.0895,-0.0995,-0.0994,-0.069,-0.069,-0.069,-0.069,-0.069,-0.069,-0.073,-0.0617,-0.0583,-0.0353,-0.0291,-0.0142,-0.0118,-0.0021,0.0016,0.0232,0.0415,0.0435,0.0104,-0.0406,-0.0619,-0.0651,-0.07,-0.0663,-0.0754,-0.0829,-0.0862,-0.0894,-0.09,-0.0581,-0.0581,-0.059,-0.059,-0.059]},{"header":{"parameterUnit":"m.s-1","parameterCategory":2,"la1":30.2991,"la2":30.254,"lo1":-89.0895,"lo2":-89.0444,"dy":0.0017,"dx":0.0017,"nx":28,"ny":28,"refTime":"2023-03-17T21:00:00:Z","depth":"0","parameterNumber":3,"parameterNumberName":"V-component_of_CURRENTS"},"data":[0,0,0,0,0,0,0,0,0,0,0,0,0,0,0,0,0,0,0,0,0,0,0,0,0,0,0,0,0,0,0,0,0,0,0,0,0,0,0,0,0,0,0,0,0,0,0,0,0,0,0,0,0,0,0,0,0,0,-0.0068,-0.0067,0,0.0086,0.0088,0.0089,0.0207,0.0209,0.021,0.0211,0.0328,0.033,0.0332,0,0,0,0,0,0,0,0,0,0,0,0,0,-0.0203,-0.0202,-0.0069,-0.0066,-0.0064,0.0086,0.0088,0.0089,0.0207,0.0209,0.021,0.0212,0.0327,0.033,0.0332,0,0,0,0,0,0,0,0,0,0,0,0,0,-0.0109,-0.0202,-0.0069,0.0014,0.0023,0.0085,0.0088,0.009,0.0207,0.0209,0.0211,0.0212,0.0327,0.033,0.0332,0.0311,0,0,0.0341,0.0342,0,0,0,0,0,0,0,0,-0.0114,-0.0104,-0.0,0.0008,0.0019,0.0131,0.0083,0.0163,0.0206,0.0135,0.0211,0.0213,0.0259,0.0267,0.029,0.0316,0.0321,0.0341,0.0343,0.0344,0.0345,0,0,0,0,0,0,0,-0.0121,-0.011,-0.0009,0.0002,0.0014,0.0064,0.0078,0.0099,0.0181,0.0141,0.0151,0.0171,0.0264,0.0286,0.0293,0.0323,0.0341,0.0344,0.0346,0.0347,0.0325,0.0323,0,0,0,0,0,0,-0.0141,-0.0117,-0.0014,-0.0005,-0.0042,0.0064,0.0081,0.0091,0.0183,0.0199,0.0169,0.0176,0.0281,0.029,0.0298,0.0271,0.0344,0.0347,0.0349,0.0327,0.0324,0.0322,0,0,0,0,0,0,-0.0145,-0.0134,-0.0021,-0.0055,-0.0036,0.0064,0.0075,0.0093,0.0121,0.0204,0.022,0.0179,0.0283,0.0294,0.0307,0.0276,0.0348,0.0351,0.033,0.0326,0.0323,0.0221,0,0,0,0,0,0,-0.015,-0.0137,-0.0146,-0.0057,-0.0035,-0.0003,0.0074,0.0095,0.0131,0.0142,0.0217,0.0231,0.0285,0.0303,0.031,0.0282,0.0353,0.0333,0.0328,0.0324,0.0227,0.0214,0.0204,0,0,0,0,0,-0.0155,-0.0175,-0.0148,-0.0135,-0.0048,-0.0005,0.0009,0.0088,0.0129,0.0123,0.0179,0.0229,0.0281,0.0303,0.0313,0.0284,0.0335,0.033,0.0325,0.0233,0.0217,0.0204,0,0,0,0,0,0,-0.024,-0.0162,-0.013,-0.0126,-0.0079,0.0016,0.0021,0.0073,0.0114,0.0124,0.0205,0.022,0.0219,0.0255,0.0278,0.0261,0.0312,0.0309,0.0239,0.0225,0.0213,0.0191,0.0355,0,0,0,0,0,-0.0266,-0.026,-0.018,-0.0182,-0.0161,-0.0076,-0.0049,0.0001,0.0057,0.008,0.0133,0.0177,0.0202,0.0218,0.0244,0.0234,0.0286,0.0218,0.0206,0.0196,0.018,0.022,0.0211,0.0305,0.0305,0.0305,0,0,-0.0299,-0.0256,-0.0252,-0.02,-0.0154,-0.0154,-0.0056,-0.0028,-0.0027,0.008,0.0085,0.0135,0.0188,0.0184,0.0185,0.0214,0.0199,0.0189,0.018,0.0171,0.0214,0.0205,0.0197,0.0301,0.0302,0.0303,0,0,-0.0369,-0.0327,-0.0348,-0.0322,-0.0266,-0.0216,-0.0216,-0.0137,-0.0099,-0.0086,-0.0013,0.0017,0.0057,0.0093,0.0116,0.0046,0.0132,0.005,-0.0021,0.0017,0.001,0.0005,0.0079,0.0081,0.0047,0.0047,0.0047,0,-0.0417,-0.0426,-0.0351,-0.037,-0.0363,-0.0257,-0.0289,-0.0243,-0.0171,-0.0149,-0.0105,-0.0039,0.0011,0.0015,-0.0002,0.0021,0.007,0.0035,0.0003,-0.0001,-0.0005,0.0073,0.0076,0.0041,0.0042,0.0043,0.0043,0,-0.0499,-0.0513,-0.0526,-0.0518,-0.0507,-0.0514,-0.0444,-0.0422,-0.036,-0.0301,-0.0271,-0.0194,-0.0148,-0.0134,-0.0084,-0.0095,-0.0041,-0.0015,0.0045,-0.002,0.0066,0.0071,0.0033,0.0035,0.0037,0.0038,0,0,-0.0581,-0.0586,-0.059,-0.0616,-0.0585,-0.0582,-0.0587,-0.0551,-0.0539,-0.0464,-0.0439,-0.0393,-0.0319,-0.0292,-0.0222,-0.0187,-0.0155,-0.012,-0.0115,-0.0036,-0.0042,0.0019,0.0032,-0.013,-0.013,-0.013,0.0037,0,-0.0668,-0.0742,-0.0719,-0.0796,-0.0826,-0.0758,-0.0777,-0.073,-0.0654,-0.06,-0.0494,-0.0453,-0.0388,-0.0355,-0.0314,-0.0178,-0.0149,-0.0201,0.0,0.0006,0.0076,0.0036,0.009,0.0245,0.0043,0.0044,0.0045,0,-0.075,-0.0788,-0.0881,-0.0927,-0.0935,-0.0969,-0.0955,-0.0951,-0.0847,-0.0784,-0.0704,-0.0596,-0.0508,-0.0451,-0.0279,-0.0309,-0.0206,-0.011,-0.01,-0.0009,0.0076,0.0271,0.0264,0.0381,0.0055,0.0054,0.0053,0,-0.0823,-0.0898,-0.0978,-0.0995,-0.103,-0.1058,-0.1064,-0.1005,-0.0992,-0.088,-0.0817,-0.071,-0.0594,-0.0487,-0.026,-0.0273,-0.0051,-0.0037,0.0105,0.0113,0.0215,0.0231,0.0349,0.003,0.003,0.003,0.0029,0,-0.0909,-0.0968,-0.102,-0.106,-0.1157,-0.1146,-0.1206,-0.117,-0.1113,-0.1058,-0.091,-0.0798,-0.0597,-0.0417,-0.0279,-0.0039,-0.0062,0.0086,0.0147,0.0182,0.0193,0.0345,0.038,0.0036,0.0035,0.0033,0.0032,0,-0.0953,-0.0995,-0.1087,-0.1159,-0.1191,-0.1247,-0.1301,-0.1321,-0.1238,-0.1143,-0.1103,-0.0846,-0.0582,-0.0383,-0.0138,-0.002,0.0247,0.0231,0.028,0.0341,0.0555,0.058,0.0726,0.0815,0.0408,0.041,0.0412,0,-0.0972,-0.1026,-0.1148,-0.1212,-0.1248,-0.1332,-0.139,-0.1387,-0.138,-0.1137,-0.1077,-0.0789,-0.0523,-0.013,0.0084,0.0323,0.0383,0.0492,0.0446,0.0568,0.0643,0.0626,0.0689,0.0563,0.0566,0.0569,0.0571,0,-0.0991,-0.1038,-0.1098,-0.1247,-0.134,-0.1442,-0.1497,-0.1518,-0.1432,-0.1264,-0.0933,-0.0686,-0.0275,0.0088,0.0344,0.0464,0.0578,0.0548,0.066,0.0749,0.0754,0.0871,0.0476,0.0593,0.0591,0.0589,0.0588,0.0587,-0.0975,-0.1022,-0.1117,-0.125,-0.136,-0.1468,-0.1504,-0.1479,-0.1381,-0.1013,-0.0783,-0.0255,0.0169,0.0579,0.0651,0.0853,0.0777,0.0927,0.0949,0.0921,0.0989,0.0647,0.0829,0.0828,0.0827,0.0827,0.0826,0,-0.094,-0.1,-0.1118,-0.1253,-0.1339,-0.143,-0.1503,-0.1457,-0.1241,-0.0826,-0.0385,0.0384,0.0718,0.0966,0.1202,0.1279,0.125,0.1306,0.1298,0.1345,0.1053,0.104,0.1292,0.1292,0.1292,0.1292,0.1292,0.1291,-0.0919,-0.0994,-0.1062,-0.1177,-0.126,-0.1314,-0.1329,-0.1204,-0.0961,-0.0299,0.0286,0.075,0.1201,0.1479,0.1639,0.1624,0.1724,0.1651,0.1715,0.1513,0.1479,0.1446,0.1443,0.1775,0.1776,0.2007,0.2009,0.2011]}],[{"header":{"parameterUnit":"m.s-1","parameterCategory":2,"la1":30.2991,"la2":30.254,"lo1":-89.0895,"lo2":-89.0444,"dy":0.0017,"dx":0.0017,"nx":28,"ny":28,"refTime":"2023-03-17T21:00:00:Z","depth":"2","parameterNumber":2,"parameterNumberName":"U-component_of_CURRENTS"},"data":[0,0,0,0,0,0,0,0,0,0,0,0,0,0,0,0,0,0,0,0,0,0,0,0,0,0,0,0,0,0,0,0,0,0,0,0,0,0,0,0,0,0,0,0,0,0,0,0,0,0,0,0,0,0,0,0,0,0,-0.2149,-0.2149,0,-0.2169,-0.217,-0.217,-0.2154,-0.2153,-0.2153,-0.2152,-0.2309,-0.2313,-0.2318,0,0,0,0,0,0,0,0,0,0,0,0,0,-0.212,-0.212,-0.2148,-0.2149,-0.2149,-0.2169,-0.217,-0.217,-0.2154,-0.2153,-0.2153,-0.2152,-0.2307,-0.2313,-0.2318,0,0,0,0,0,0,0,0,0,0,0,0,0,-0.2133,-0.212,-0.2148,-0.2146,-0.2146,-0.2169,-0.217,-0.217,-0.2154,-0.2153,-0.2152,-0.2152,-0.2306,-0.2312,-0.2319,-0.2375,0,0,-0.234,-0.2343,0,0,0,0,0,0,0,0,-0.2133,-0.2134,-0.2146,-0.2146,-0.2146,-0.2161,-0.2217,-0.2246,-0.2154,-0.2148,-0.2152,-0.2152,-0.2274,-0.2284,-0.2283,-0.2382,-0.2389,-0.2341,-0.2345,-0.2348,-0.235,0,0,0,0,0,0,0,-0.2132,-0.2133,-0.2154,-0.2146,-0.2147,-0.2153,-0.2153,-0.2222,-0.2215,-0.2149,-0.2148,-0.2155,-0.2275,-0.2276,-0.2287,-0.2391,-0.2341,-0.2347,-0.2351,-0.2354,-0.2632,-0.2635,0,0,0,0,0,0,-0.2134,-0.2132,-0.2154,-0.2155,-0.2141,-0.2154,-0.2154,-0.2155,-0.2211,-0.2219,-0.2155,-0.2154,-0.2265,-0.2279,-0.2293,-0.2404,-0.2348,-0.2354,-0.2358,-0.2629,-0.2632,-0.2636,0,0,0,0,0,0,-0.2133,-0.2135,-0.2153,-0.2147,-0.215,-0.2155,-0.2155,-0.2155,-0.2178,-0.2216,-0.2225,-0.218,-0.2265,-0.2283,-0.2393,-0.2409,-0.2357,-0.2364,-0.2625,-0.263,-0.2634,-0.2602,0,0,0,0,0,0,-0.2132,-0.2135,-0.2147,-0.2147,-0.215,-0.2184,-0.2156,-0.2156,-0.2183,-0.2182,-0.2241,-0.2252,-0.2266,-0.2383,-0.24,-0.2418,-0.2369,-0.2621,-0.2627,-0.2633,-0.2599,-0.2605,-0.261,0,0,0,0,0,-0.2131,-0.2168,-0.2147,-0.215,-0.2162,-0.2186,-0.2189,-0.2188,-0.2185,-0.2204,-0.2259,-0.2251,-0.2433,-0.2392,-0.2411,-0.243,-0.2618,-0.2625,-0.2632,-0.2596,-0.2604,-0.261,0,0,0,0,0,0,-0.2176,-0.217,-0.2147,-0.2181,-0.2183,-0.2185,-0.2224,-0.2208,-0.2261,-0.2281,-0.2302,-0.232,-0.2413,-0.2453,-0.2406,-0.2536,-0.2521,-0.2533,-0.2488,-0.2495,-0.2501,-0.2393,-0.2375,0,0,0,0,0,-0.2185,-0.221,-0.2192,-0.2227,-0.2236,-0.2229,-0.2245,-0.2237,-0.2276,-0.2296,-0.2337,-0.2401,-0.2456,-0.2501,-0.2559,-0.2647,-0.2605,-0.2676,-0.2682,-0.2686,-0.2617,-0.2578,-0.257,-0.266,-0.266,-0.266,0,0,-0.2239,-0.2218,-0.225,-0.2238,-0.2251,-0.2247,-0.2239,-0.228,-0.228,-0.2314,-0.2377,-0.2428,-0.2487,-0.2565,-0.2611,-0.2602,-0.2655,-0.2695,-0.2697,-0.2624,-0.2584,-0.2573,-0.2564,-0.2665,-0.2664,-0.2663,0,0,-0.2282,-0.2317,-0.2313,-0.2315,-0.2311,-0.2312,-0.2325,-0.2338,-0.2356,-0.2418,-0.2435,-0.2478,-0.2604,-0.2602,-0.2626,-0.2708,-0.2684,-0.2776,-0.2714,-0.268,-0.2668,-0.2658,-0.2635,-0.2622,-0.278,-0.278,-0.278,0,-0.2314,-0.2296,-0.2326,-0.2294,-0.23,-0.2336,-0.2319,-0.2355,-0.24,-0.2399,-0.2447,-0.2524,-0.2587,-0.2598,-0.2631,-0.2704,-0.2698,-0.2673,-0.2675,-0.2663,-0.2653,-0.2632,-0.2618,-0.278,-0.278,-0.278,-0.278,0,-0.2317,-0.2307,-0.233,-0.2286,-0.2305,-0.2333,-0.2354,-0.2393,-0.2432,-0.242,-0.246,-0.2529,-0.2546,-0.2602,-0.2645,-0.2619,-0.2646,-0.2676,-0.2628,-0.2639,-0.2621,-0.2607,-0.2779,-0.2779,-0.2779,-0.2779,0,0,-0.234,-0.2322,-0.232,-0.2288,-0.2303,-0.2315,-0.2353,-0.2349,-0.2358,-0.24,-0.2384,-0.245,-0.2452,-0.2478,-0.2536,-0.2511,-0.2469,-0.257,-0.2569,-0.2493,-0.2407,-0.2334,-0.2312,-0.2511,-0.2508,-0.2505,-0.2436,0,-0.2305,-0.2241,-0.2245,-0.223,-0.2215,-0.226,-0.2287,-0.23,-0.2347,-0.2371,-0.2375,-0.241,-0.2424,-0.2461,-0.2423,-0.2485,-0.2426,-0.2485,-0.245,-0.2447,-0.2335,-0.2289,-0.2124,-0.2039,-0.2422,-0.2419,-0.2418,0,-0.2267,-0.2219,-0.218,-0.2169,-0.2172,-0.2176,-0.2214,-0.2238,-0.227,-0.2306,-0.2283,-0.2325,-0.2301,-0.2339,-0.2287,-0.234,-0.2335,-0.235,-0.2349,-0.2254,-0.2344,-0.2088,-0.1998,-0.2394,-0.2396,-0.2397,-0.2399,0,-0.2222,-0.2182,-0.2149,-0.215,-0.2147,-0.2144,-0.2159,-0.2194,-0.2226,-0.2256,-0.2285,-0.2246,-0.227,-0.2226,-0.2248,-0.2286,-0.2194,-0.2261,-0.2151,-0.2149,-0.1974,-0.1961,-0.2141,-0.2141,-0.2141,-0.2141,-0.2141,0,-0.2152,-0.2138,-0.2133,-0.2102,-0.2089,-0.2108,-0.2111,-0.2135,-0.2184,-0.2191,-0.2236,-0.2235,-0.2244,-0.2219,-0.2213,-0.2121,-0.2147,-0.2076,-0.2095,-0.1972,-0.1959,-0.224,-0.2252,-0.2138,-0.2139,-0.2139,-0.214,0,-0.2091,-0.2098,-0.2059,-0.2044,-0.2056,-0.2042,-0.2078,-0.2089,-0.2149,-0.2172,-0.2184,-0.2224,-0.2169,-0.2152,-0.2108,-0.2074,-0.2014,-0.1962,-0.182,-0.182,-0.2006,-0.2019,-0.1831,-0.1827,-0.1824,-0.1821,-0.1818,0,-0.2069,-0.2032,-0.2007,-0.1998,-0.1986,-0.1989,-0.2001,-0.2057,-0.2073,-0.2141,-0.2139,-0.2124,-0.2059,-0.1964,-0.1873,-0.1774,-0.1879,-0.1607,-0.1608,-0.192,-0.196,-0.1978,-0.1995,-0.1401,-0.1396,-0.1391,-0.1388,0,-0.1987,-0.1981,-0.1923,-0.1892,-0.1894,-0.1904,-0.1917,-0.1924,-0.1988,-0.2014,-0.2001,-0.1962,-0.1851,-0.1656,-0.1548,-0.149,-0.1617,-0.1512,-0.1834,-0.1511,-0.151,-0.1553,-0.1583,-0.1348,-0.1352,-0.1355,-0.1357,-0.1358,-0.1947,-0.1887,-0.1809,-0.1767,-0.1787,-0.1779,-0.1727,-0.1761,-0.1752,-0.1737,-0.1803,-0.1695,-0.1621,-0.1344,-0.1239,-0.1173,-0.1296,-0.1273,-0.1289,-0.1309,-0.1276,-0.1269,-0.1057,-0.1059,-0.1061,-0.1063,-0.1065,0,-0.1859,-0.1767,-0.1704,-0.1627,-0.1584,-0.1655,-0.1645,-0.1562,-0.1481,-0.1515,-0.1483,-0.1275,-0.1121,-0.1062,-0.0864,-0.0827,-0.0842,-0.0822,-0.0842,-0.0881,-0.0915,-0.0866,-0.0536,-0.0535,-0.0534,-0.0533,0,0,-0.1823,-0.1661,-0.1581,-0.1425,-0.1411,-0.1327,-0.1294,-0.1196,-0.1158,-0.1058,-0.1023,-0.1112,-0.1051,-0.0818,-0.073,-0.06,-0.0752,-0.0571,-0.0989,-0.1052,-0.1086,-0.1158,-0.1122,0,0,0,0,0]},{"header":{"parameterUnit":"m.s-1","parameterCategory":2,"la1":30.2991,"la2":30.254,"lo1":-89.0895,"lo2":-89.0444,"dy":0.0017,"dx":0.0017,"nx":28,"ny":28,"refTime":"2023-03-17T21:00:00:Z","depth":"2","parameterNumber":3,"parameterNumberName":"V-component_of_CURRENTS"},"data":[0,0,0,0,0,0,0,0,0,0,0,0,0,0,0,0,0,0,0,0,0,0,0,0,0,0,0,0,0,0,0,0,0,0,0,0,0,0,0,0,0,0,0,0,0,0,0,0,0,0,0,0,0,0,0,0,0,0,-0.0241,-0.024,0,-0.0164,-0.0164,-0.0163,-0.0151,-0.0152,-0.0153,-0.0154,-0.0045,-0.0042,-0.0038,0,0,0,0,0,0,0,0,0,0,0,0,0,-0.0319,-0.0318,-0.0241,-0.024,-0.0239,-0.0165,-0.0163,-0.0162,-0.0151,-0.0152,-0.0153,-0.0154,-0.0046,-0.0042,-0.0038,0,0,0,0,0,0,0,0,0,0,0,0,0,-0.0268,-0.0318,-0.0241,-0.0225,-0.0223,-0.0165,-0.0163,-0.0162,-0.0151,-0.0152,-0.0153,-0.0154,-0.0048,-0.0042,-0.0037,0.0018,0,0,-0.0021,-0.0018,0,0,0,0,0,0,0,0,-0.0271,-0.0265,-0.0228,-0.0226,-0.0223,-0.0169,-0.0151,-0.01,-0.0151,-0.0178,-0.0154,-0.0155,-0.0083,-0.0075,-0.0058,0.0023,0.0028,-0.002,-0.0017,-0.0015,-0.0013,0,0,0,0,0,0,0,-0.0275,-0.0268,-0.021,-0.0227,-0.0224,-0.0201,-0.0196,-0.0141,-0.0124,-0.0176,-0.0175,-0.0166,-0.0082,-0.0063,-0.0055,0.0029,-0.002,-0.0016,-0.0012,-0.001,0.0195,0.0197,0,0,0,0,0,0,-0.0286,-0.0272,-0.0213,-0.0208,-0.0251,-0.0199,-0.0193,-0.0185,-0.0126,-0.0118,-0.0166,-0.0166,-0.0072,-0.0061,-0.0051,0.0007,-0.0015,-0.001,-0.0007,0.0193,0.0196,0.0198,0,0,0,0,0,0,-0.0288,-0.0282,-0.0216,-0.0238,-0.0229,-0.0197,-0.0188,-0.0183,-0.017,-0.0118,-0.011,-0.016,-0.0072,-0.0059,0.0001,0.0012,-0.0007,-0.0002,0.019,0.0194,0.0197,0.0131,0,0,0,0,0,0,-0.0291,-0.0283,-0.0286,-0.0239,-0.0228,-0.0191,-0.0187,-0.0181,-0.0163,-0.0164,-0.011,-0.0101,-0.0072,-0.0007,0.0007,0.0019,0.0002,0.0187,0.0192,0.0196,0.0131,0.0132,0.0133,0,0,0,0,0,-0.0294,-0.0295,-0.0287,-0.028,-0.0231,-0.0191,-0.0183,-0.0164,-0.0162,-0.0157,-0.0112,-0.0103,0.003,-0.0001,0.0015,0.0028,0.0185,0.0191,0.0195,0.013,0.0132,0.0133,0,0,0,0,0,0,-0.0335,-0.0292,-0.0283,-0.0272,-0.0238,-0.0189,-0.0182,-0.0164,-0.0124,-0.0123,-0.0078,-0.0065,-0.0008,0.0034,-0.0001,0.0107,0.0112,0.012,0.0057,0.0059,0.0061,0.0021,0.0006,0,0,0,0,0,-0.0344,-0.0334,-0.0286,-0.0281,-0.0262,-0.0221,-0.0204,-0.0187,-0.0143,-0.0128,-0.0086,-0.0028,0.0029,0.0059,0.0114,0.0173,0.0189,0.0199,0.02,0.02,0.0184,0.0213,0.0214,0.0215,0.0215,0.0214,0,0,-0.0371,-0.0335,-0.0339,-0.0289,-0.0261,-0.0235,-0.0214,-0.0187,-0.0169,-0.0119,-0.0079,-0.0026,0.0048,0.0106,0.0137,0.0138,0.0216,0.0207,0.0206,0.0189,0.0218,0.0217,0.0217,0.0218,0.0217,0.0217,0,0,-0.0394,-0.0373,-0.0365,-0.0332,-0.0283,-0.0252,-0.0246,-0.0192,-0.0172,-0.0117,-0.0076,-0.0024,0.0072,0.0113,0.0151,0.02,0.0219,0.0235,0.0206,0.0235,0.0233,0.0232,0.0262,0.0263,0.0237,0.0237,0.0237,0,-0.0426,-0.0401,-0.0359,-0.0329,-0.0311,-0.0262,-0.0248,-0.0212,-0.0148,-0.0128,-0.0112,0.0016,0.0069,0.0133,0.0151,0.0195,0.0218,0.0182,0.0229,0.0229,0.0228,0.0259,0.0262,0.0234,0.0235,0.0235,0.0235,0,-0.043,-0.0413,-0.0402,-0.0353,-0.0327,-0.0306,-0.0251,-0.0225,-0.019,-0.0151,-0.0084,-0.0008,0.0059,0.0099,0.0139,0.0179,0.0199,0.0218,0.0205,0.0223,0.0256,0.026,0.0231,0.0232,0.0232,0.0233,0,0,-0.0503,-0.0423,-0.0423,-0.0405,-0.0338,-0.0319,-0.0286,-0.024,-0.0225,-0.0156,-0.013,-0.0028,0.0004,0.005,0.011,0.0141,0.0165,0.0176,0.0179,0.0169,0.023,0.0268,0.0276,0.0186,0.0187,0.0187,0.0255,0,-0.0523,-0.0483,-0.0436,-0.0419,-0.0398,-0.0347,-0.0321,-0.0276,-0.0228,-0.0187,-0.0113,-0.0058,-0.0009,0.0023,0.006,0.0142,0.0172,0.0145,0.0246,0.0249,0.025,0.028,0.0276,0.0339,0.0259,0.026,0.026,0,-0.0549,-0.0511,-0.0495,-0.0445,-0.0433,-0.042,-0.0383,-0.035,-0.0281,-0.0242,-0.0186,-0.0122,-0.0056,-0.0021,0.009,0.0072,0.014,0.0198,0.0202,0.0256,0.0293,0.0313,0.0349,0.0267,0.0266,0.0266,0.0266,0,-0.0618,-0.0563,-0.0555,-0.0537,-0.0469,-0.0465,-0.0437,-0.0377,-0.0354,-0.0285,-0.0265,-0.0171,-0.0123,-0.0038,0.0091,0.0089,0.021,0.0223,0.0319,0.0322,0.0348,0.0353,0.0286,0.0286,0.0286,0.0286,0.0286,0,-0.0653,-0.0654,-0.0591,-0.0582,-0.0589,-0.0522,-0.052,-0.048,-0.0422,-0.0392,-0.0307,-0.0256,-0.0126,-0.0031,0.0072,0.0213,0.0196,0.0312,0.0342,0.0331,0.0334,0.0293,0.0293,0.0288,0.0288,0.0287,0.0287,0,-0.073,-0.0688,-0.0679,-0.0622,-0.062,-0.0626,-0.0586,-0.0576,-0.0515,-0.0478,-0.046,-0.0324,-0.0184,-0.0051,0.0111,0.0194,0.0321,0.0374,0.0356,0.0383,0.0415,0.0411,0.0474,0.0476,0.0477,0.0479,0.048,0,-0.0771,-0.0771,-0.0731,-0.0745,-0.0727,-0.0723,-0.0721,-0.0644,-0.062,-0.0504,-0.0487,-0.0342,-0.0201,0.0043,0.0211,0.0389,0.0381,0.0475,0.0469,0.041,0.0434,0.0427,0.0422,0.0484,0.0485,0.0486,0.0487,0,-0.0844,-0.0828,-0.0806,-0.0829,-0.0838,-0.0844,-0.0823,-0.0802,-0.0697,-0.0633,-0.0489,-0.0362,-0.0107,0.0129,0.0346,0.0437,0.0443,0.0499,0.0449,0.0437,0.0426,0.0446,0.044,0.0494,0.0494,0.0493,0.0493,0.0492,-0.0911,-0.0916,-0.0888,-0.0908,-0.0933,-0.0943,-0.0928,-0.0868,-0.0795,-0.063,-0.0498,-0.0269,-0.0049,0.0293,0.0435,0.0542,0.054,0.057,0.0565,0.0559,0.0548,0.054,0.0629,0.0629,0.0628,0.0628,0.0628,0,-0.0971,-0.096,-0.0977,-0.0981,-0.1012,-0.1017,-0.0981,-0.0912,-0.0798,-0.0589,-0.0408,-0.0144,0.0115,0.0316,0.0519,0.064,0.0602,0.0634,0.0581,0.0574,0.0568,0.0553,0.0637,0.0637,0.0637,0.0637,0,0,-0.1006,-0.1007,-0.0985,-0.1033,-0.1063,-0.1073,-0.1047,-0.0914,-0.0735,-0.048,-0.0284,-0.0061,0.0191,0.0327,0.0477,0.0582,0.0538,0.0568,0.0555,0.0472,0.0464,0.0531,0.0502,0,0,0,0,0]}],[{"header":{"parameterUnit":"m.s-1","parameterCategory":2,"la1":30.2991,"la2":30.254,"lo1":-89.0895,"lo2":-89.0444,"dy":0.0017,"dx":0.0017,"nx":28,"ny":28,"refTime":"2023-03-17T21:00:00:Z","depth":"4","parameterNumber":2,"parameterNumberName":"U-component_of_CURRENTS"},"data":[0,0,0,0,0,0,0,0,0,0,0,0,0,0,0,0,0,0,0,0,0,0,0,0,0,0,0,0,0,0,0,0,0,0,0,0,0,0,0,0,0,0,0,0,0,0,0,0,0,0,0,0,0,0,0,0,0,0,-0.1308,-0.1308,0,-0.1369,-0.137,-0.137,-0.1398,-0.1399,-0.1399,-0.1399,-0.1431,-0.1432,-0.1433,0,0,0,0,0,0,0,0,0,0,0,0,0,-0.1208,-0.121,-0.1308,-0.1308,-0.1309,-0.1369,-0.137,-0.137,-0.1398,-0.1399,-0.1399,-0.1399,-0.1431,-0.1432,-0.1433,0,0,0,0,0,0,0,0,0,0,0,0,0,-0.1257,-0.121,-0.1307,-0.1332,-0.1335,-0.1369,-0.137,-0.137,-0.1398,-0.1399,-0.1399,-0.1399,-0.1431,-0.1432,-0.1433,-0.1435,0,0,-0.1436,-0.1437,0,0,0,0,0,0,0,0,-0.1254,-0.126,-0.1328,-0.1331,-0.1334,-0.1378,-0.1347,-0.1391,-0.1398,-0.1372,-0.1399,-0.1399,-0.1412,-0.1415,-0.1423,-0.1437,-0.1438,-0.1436,-0.1437,-0.1437,-0.1438,0,0,0,0,0,0,0,-0.1251,-0.1258,-0.133,-0.1329,-0.1333,-0.1339,-0.1345,-0.1355,-0.1388,-0.1374,-0.1377,-0.1387,-0.1413,-0.1422,-0.1424,-0.1438,-0.1436,-0.1437,-0.1438,-0.1438,-0.1512,-0.1513,0,0,0,0,0,0,-0.1248,-0.1255,-0.1328,-0.1332,-0.1296,-0.134,-0.1348,-0.1362,-0.1388,-0.1394,-0.1387,-0.1389,-0.142,-0.1423,-0.1425,-0.1476,-0.1437,-0.1438,-0.1439,-0.151,-0.1512,-0.1513,0,0,0,0,0,0,-0.1245,-0.1254,-0.1325,-0.1296,-0.1306,-0.1342,-0.1357,-0.1363,-0.1392,-0.1399,-0.1403,-0.1412,-0.142,-0.1424,-0.1452,-0.1475,-0.1439,-0.144,-0.1509,-0.1511,-0.1513,-0.1547,0,0,0,0,0,0,-0.1242,-0.1253,-0.127,-0.1296,-0.1307,-0.1357,-0.1358,-0.1364,-0.1398,-0.14,-0.1421,-0.1424,-0.1421,-0.1451,-0.1453,-0.1476,-0.1441,-0.1507,-0.151,-0.1512,-0.1544,-0.155,-0.1555,0,0,0,0,0,-0.1239,-0.1256,-0.127,-0.128,-0.1327,-0.1359,-0.1365,-0.1389,-0.1399,-0.1415,-0.1431,-0.1424,-0.1468,-0.1453,-0.1455,-0.1479,-0.1506,-0.1509,-0.1512,-0.1542,-0.1549,-0.1555,0,0,0,0,0,0,-0.1223,-0.1262,-0.1278,-0.1307,-0.1338,-0.1364,-0.1386,-0.1402,-0.1428,-0.1437,-0.1438,-0.1442,-0.1477,-0.1475,-0.1458,-0.1509,-0.1487,-0.1491,-0.1509,-0.1516,-0.1521,-0.1528,-0.1442,0,0,0,0,0,-0.1228,-0.1254,-0.1288,-0.1316,-0.1333,-0.1364,-0.1384,-0.1403,-0.1427,-0.144,-0.1457,-0.1474,-0.1488,-0.15,-0.1514,-0.1539,-0.1535,-0.1558,-0.1564,-0.1568,-0.1577,-0.16,-0.1608,-0.1523,-0.1523,-0.1523,0,0,-0.1228,-0.1257,-0.1271,-0.1316,-0.1342,-0.1375,-0.1377,-0.1415,-0.1444,-0.1438,-0.1486,-0.1496,-0.15,-0.1531,-0.1546,-0.1534,-0.1587,-0.1572,-0.1575,-0.1582,-0.1604,-0.1612,-0.1619,-0.1525,-0.1525,-0.1524,0,0,-0.1242,-0.1271,-0.1297,-0.1328,-0.1377,-0.1395,-0.1411,-0.1453,-0.1473,-0.1517,-0.1518,-0.1544,-0.1574,-0.1579,-0.1584,-0.1628,-0.1615,-0.1636,-0.1666,-0.1689,-0.1696,-0.1702,-0.1689,-0.1694,-0.1637,-0.1637,-0.1637,0,-0.1244,-0.1282,-0.1309,-0.1347,-0.1375,-0.1407,-0.1441,-0.1467,-0.1515,-0.1535,-0.154,-0.1597,-0.1597,-0.1626,-0.164,-0.164,-0.1641,-0.1638,-0.1695,-0.1701,-0.1707,-0.1692,-0.1697,-0.1639,-0.1639,-0.1638,-0.1638,0,-0.1272,-0.1314,-0.1333,-0.139,-0.1423,-0.1458,-0.1497,-0.1533,-0.1564,-0.1592,-0.1643,-0.1652,-0.1684,-0.1688,-0.1676,-0.1718,-0.17,-0.1699,-0.1676,-0.1718,-0.1699,-0.1704,-0.1642,-0.1641,-0.164,-0.164,0,0,-0.1241,-0.1335,-0.1342,-0.1382,-0.1449,-0.1477,-0.1527,-0.1576,-0.162,-0.1663,-0.1714,-0.1735,-0.1749,-0.1755,-0.1749,-0.1766,-0.1793,-0.1753,-0.1753,-0.1734,-0.1824,-0.167,-0.1659,-0.1807,-0.1808,-0.1809,-0.1787,0,-0.1254,-0.1327,-0.1369,-0.1438,-0.1476,-0.1526,-0.1573,-0.1626,-0.1671,-0.1731,-0.1748,-0.1795,-0.177,-0.1792,-0.1807,-0.1803,-0.181,-0.1798,-0.1792,-0.1792,-0.1645,-0.1661,-0.1814,-0.1791,-0.1791,-0.1792,-0.1793,0,-0.1254,-0.1308,-0.1377,-0.1473,-0.1494,-0.1542,-0.1625,-0.1672,-0.1751,-0.179,-0.1837,-0.1859,-0.1885,-0.1867,-0.1876,-0.1872,-0.1853,-0.1844,-0.1843,-0.1692,-0.1645,-0.1746,-0.18,-0.18,-0.1799,-0.1799,-0.1798,0,-0.1203,-0.1307,-0.1363,-0.1396,-0.1508,-0.155,-0.1606,-0.1692,-0.174,-0.1829,-0.1875,-0.1915,-0.1933,-0.1937,-0.1895,-0.1903,-0.1896,-0.1902,-0.1742,-0.173,-0.1861,-0.1855,-0.1915,-0.1915,-0.1915,-0.1915,-0.1915,0,-0.1179,-0.1226,-0.1353,-0.1383,-0.1459,-0.1542,-0.1622,-0.1685,-0.1784,-0.1834,-0.1899,-0.192,-0.1956,-0.1947,-0.192,-0.1817,-0.1907,-0.1743,-0.1717,-0.1873,-0.1868,-0.1862,-0.1856,-0.1915,-0.1915,-0.1915,-0.1915,0,-0.1106,-0.1188,-0.1266,-0.1396,-0.1437,-0.1492,-0.1621,-0.1677,-0.1776,-0.1843,-0.1871,-0.1932,-0.1894,-0.1892,-0.1879,-0.1816,-0.176,-0.1703,-0.1842,-0.1825,-0.1578,-0.1575,-0.1539,-0.1534,-0.1529,-0.1525,-0.1522,0,-0.1072,-0.111,-0.1257,-0.1303,-0.1365,-0.146,-0.152,-0.165,-0.1702,-0.1815,-0.1829,-0.184,-0.1848,-0.1693,-0.171,-0.1634,-0.1611,-0.1591,-0.161,-0.1563,-0.1542,-0.1546,-0.1549,-0.1514,-0.1513,-0.1512,-0.1511,0,-0.1007,-0.1074,-0.1139,-0.1234,-0.1312,-0.1388,-0.1482,-0.1511,-0.1641,-0.1753,-0.1725,-0.1693,-0.1636,-0.1582,-0.1516,-0.1472,-0.1618,-0.1542,-0.1552,-0.157,-0.1532,-0.1517,-0.1526,-0.1494,-0.1497,-0.1498,-0.1499,0,-0.0951,-0.0986,-0.1076,-0.1149,-0.124,-0.1277,-0.1347,-0.1395,-0.1458,-0.1593,-0.1565,-0.1566,-0.161,-0.1494,-0.1441,-0.137,-0.1359,-0.1345,-0.1366,-0.1384,-0.1339,-0.1268,-0.1121,0,0,0,0,0,-0.0884,-0.0912,-0.0979,-0.1049,-0.1134,-0.1173,-0.1301,-0.1374,-0.1502,-0.1442,-0.1503,-0.1436,-0.135,-0.1349,-0.1237,-0.1359,-0.136,-0.1226,-0.1356,-0.1404,-0.1423,-0.1381,0,0,0,0,0,0,-0.0836,-0.0892,-0.0938,-0.0944,-0.0959,-0.1031,-0.11,-0.1193,-0.1171,-0.1296,-0.1239,-0.134,-0.1254,-0.1356,-0.1193,-0.1194,-0.1249,-0.124,-0.1236,-0.1393,-0.141,-0.1425,-0.1389,0,0,0,0,0]},{"header":{"parameterUnit":"m.s-1","parameterCategory":2,"la1":30.2991,"la2":30.254,"lo1":-89.0895,"lo2":-89.0444,"dy":0.0017,"dx":0.0017,"nx":28,"ny":28,"refTime":"2023-03-17T21:00:00:Z","depth":"4","parameterNumber":3,"parameterNumberName":"V-component_of_CURRENTS"},"data":[0,0,0,0,0,0,0,0,0,0,0,0,0,0,0,0,0,0,0,0,0,0,0,0,0,0,0,0,0,0,0,0,0,0,0,0,0,0,0,0,0,0,0,0,0,0,0,0,0,0,0,0,0,0,0,0,0,0,-0.0105,-0.0104,0,-0.0081,-0.0081,-0.008,-0.0074,-0.0074,-0.0074,-0.0074,-0.0028,-0.0026,-0.0025,0,0,0,0,0,0,0,0,0,0,0,0,0,-0.0114,-0.0114,-0.0105,-0.0104,-0.0104,-0.0081,-0.0081,-0.008,-0.0074,-0.0074,-0.0074,-0.0074,-0.0028,-0.0026,-0.0025,0,0,0,0,0,0,0,0,0,0,0,0,0,-0.0102,-0.0114,-0.0105,-0.0098,-0.0097,-0.0081,-0.0081,-0.008,-0.0073,-0.0074,-0.0074,-0.0074,-0.0029,-0.0027,-0.0025,-0.0008,0,0,-0.0018,-0.0017,0,0,0,0,0,0,0,0,-0.0103,-0.0102,-0.0099,-0.0098,-0.0097,-0.008,-0.0067,-0.0055,-0.0073,-0.0082,-0.0074,-0.0074,-0.0043,-0.004,-0.0035,-0.0006,-0.0004,-0.0018,-0.0017,-0.0016,-0.0015,0,0,0,0,0,0,0,-0.0104,-0.0103,-0.0095,-0.0099,-0.0098,-0.0086,-0.0085,-0.0065,-0.0061,-0.0082,-0.0081,-0.0078,-0.0042,-0.0037,-0.0034,-0.0003,-0.0018,-0.0016,-0.0015,-0.0014,0.0024,0.0023,0,0,0,0,0,0,-0.0108,-0.0104,-0.0096,-0.0094,-0.0101,-0.0086,-0.0084,-0.0086,-0.0062,-0.0059,-0.0078,-0.0078,-0.0041,-0.0036,-0.0032,-0.0028,-0.0016,-0.0014,-0.0013,0.0024,0.0024,0.0023,0,0,0,0,0,0,-0.0109,-0.0108,-0.0097,-0.0098,-0.0096,-0.0086,-0.0087,-0.0085,-0.0084,-0.006,-0.0056,-0.0079,-0.0041,-0.0035,-0.002,-0.0025,-0.0013,-0.0011,0.0024,0.0024,0.0023,-0.0008,0,0,0,0,0,0,-0.0109,-0.0108,-0.0114,-0.0099,-0.0096,-0.0096,-0.0087,-0.0084,-0.0081,-0.0081,-0.0059,-0.0055,-0.004,-0.0024,-0.0018,-0.0022,-0.001,0.0024,0.0024,0.0024,-0.0006,-0.0009,-0.0011,0,0,0,0,0,-0.011,-0.0121,-0.0115,-0.0114,-0.0104,-0.0096,-0.0094,-0.0087,-0.0081,-0.0085,-0.0069,-0.0056,-0.0023,-0.0022,-0.0016,-0.0019,0.0025,0.0024,0.0024,-0.0005,-0.0008,-0.0011,0,0,0,0,0,0,-0.0128,-0.0121,-0.0114,-0.0122,-0.0112,-0.0095,-0.01,-0.0089,-0.0079,-0.0079,-0.0055,-0.0049,-0.0043,-0.0024,-0.0024,-0.001,0.0002,0.0002,-0.0022,-0.0025,-0.0027,-0.0019,-0.0008,0,0,0,0,0,-0.0134,-0.0143,-0.0127,-0.0134,-0.013,-0.0114,-0.011,-0.0103,-0.009,-0.0086,-0.0069,-0.0051,-0.0039,-0.0027,-0.0016,-0.0,0.0033,0.0001,-0.0002,-0.0004,0.0007,0.0063,0.0067,0.0022,0.0022,0.0022,0,0,-0.0143,-0.0141,-0.0145,-0.0139,-0.0131,-0.013,-0.0113,-0.0112,-0.011,-0.0082,-0.0076,-0.0062,-0.0039,-0.003,-0.0025,-0.0014,0.002,-0.0005,-0.0007,0.0006,0.0063,0.0067,0.0071,0.0021,0.0021,0.0022,0,0,-0.0166,-0.0162,-0.0176,-0.0169,-0.016,-0.0149,-0.0149,-0.0133,-0.0125,-0.0116,-0.0098,-0.0079,-0.0063,-0.004,-0.0028,-0.0032,-0.0,-0.0038,-0.0034,0.0019,0.0024,0.0028,0.0054,0.0062,-0.0032,-0.0032,-0.0032,0,-0.0178,-0.019,-0.0179,-0.0186,-0.0181,-0.0159,-0.0164,-0.0153,-0.0134,-0.0118,-0.0122,-0.0079,-0.0065,-0.0032,-0.0041,-0.0036,-0.001,-0.0026,0.0017,0.0023,0.0028,0.0054,0.0062,-0.0034,-0.0034,-0.0033,-0.0033,0,-0.0209,-0.0214,-0.0221,-0.0223,-0.0216,-0.0219,-0.0197,-0.0188,-0.0175,-0.0153,-0.0125,-0.0099,-0.0067,-0.0066,-0.0058,-0.0016,-0.0013,0.0002,0.0026,0.0031,0.0057,0.0066,-0.0036,-0.0035,-0.0035,-0.0035,0,0,-0.0246,-0.0245,-0.0248,-0.0247,-0.0234,-0.0231,-0.0223,-0.02,-0.0186,-0.0161,-0.0134,-0.0109,-0.0081,-0.0064,-0.0043,0.0003,0.0046,0.0014,0.0018,0.0043,0.0148,0.013,0.0139,0.0071,0.0073,0.0074,0.0144,0,-0.0273,-0.0296,-0.0283,-0.0293,-0.0297,-0.0267,-0.0258,-0.023,-0.0205,-0.0175,-0.0125,-0.0101,-0.0083,-0.0071,-0.002,0.0025,0.0073,0.0025,0.0139,0.0142,0.0129,0.015,0.008,0.0151,0.0153,0.0155,0.0156,0,-0.0309,-0.0316,-0.0337,-0.0319,-0.0317,-0.032,-0.0291,-0.0278,-0.0223,-0.0198,-0.0146,-0.0109,-0.0048,-0.0036,0.0074,0.0042,0.0096,0.0137,0.0141,0.0148,0.0143,0.0152,0.0173,0.0172,0.0171,0.0169,0.0168,0,-0.0345,-0.0349,-0.0367,-0.0365,-0.0347,-0.0346,-0.0334,-0.0289,-0.0274,-0.0212,-0.0194,-0.0105,-0.0072,0.0019,0.0098,0.009,0.022,0.0221,0.0262,0.0261,0.0269,0.0264,0.0319,0.0319,0.0319,0.0318,0.0318,0,-0.0377,-0.0388,-0.039,-0.04,-0.0415,-0.0383,-0.0383,-0.0355,-0.0309,-0.0285,-0.0212,-0.0167,-0.0054,0.0029,0.0107,0.0209,0.0233,0.0273,0.0288,0.0249,0.0241,0.0274,0.0268,0.0321,0.032,0.032,0.0319,0,-0.0411,-0.0414,-0.0436,-0.0433,-0.0438,-0.0449,-0.0436,-0.0428,-0.0379,-0.0347,-0.0329,-0.0214,-0.0098,0.0011,0.0158,0.0208,0.0312,0.0346,0.0283,0.0291,0.0312,0.0304,0.0398,0.0398,0.0398,0.0398,0.0398,0,-0.0429,-0.0449,-0.0475,-0.0501,-0.0508,-0.0519,-0.0525,-0.0478,-0.0462,-0.0367,-0.035,-0.023,-0.0146,0.0052,0.0166,0.0318,0.0339,0.0376,0.0362,0.0321,0.0326,0.0317,0.0308,0.0399,0.0399,0.0399,0.0399,0,-0.0463,-0.0482,-0.0502,-0.0558,-0.0585,-0.06,-0.0599,-0.0588,-0.0518,-0.0478,-0.0348,-0.0227,-0.0094,0.0063,0.0177,0.0288,0.034,0.0378,0.0378,0.0365,0.0323,0.0326,0.0317,0.0399,0.0399,0.0399,0.0399,0,-0.0488,-0.0518,-0.0559,-0.0602,-0.0648,-0.0664,-0.0653,-0.0603,-0.0566,-0.0447,-0.0398,-0.023,-0.0121,0.0049,0.016,0.0259,0.0282,0.0296,0.0301,0.0302,0.0249,0.018,0.0237,0,0,0,0,0,-0.0496,-0.0538,-0.0596,-0.0643,-0.0692,-0.0707,-0.0694,-0.0665,-0.0595,-0.051,-0.0447,-0.0308,-0.0103,0.0002,0.0099,0.0135,0.0269,0.0248,0.0281,0.0403,0.0402,0.0355,0,0,0,0,0,0,-0.0504,-0.0563,-0.0598,-0.0671,-0.0708,-0.0745,-0.0733,-0.0683,-0.0614,-0.0525,-0.0404,-0.0312,-0.0109,-0.0164,0.0093,0.0126,0.0153,0.0356,0.0358,0.0403,0.0402,0.0402,0.0353,0,0,0,0,0]}]]